Location: Buch
(49.7331°N, 12.1098°E)
Time: 01:18:35
(UTC+00:00)

Resurs 01 Rocket - Pass Details

Date: 12 May 2021
Orbit: 634 x 644 km, 97.9° (Epoch: 23 June)

Event Time Altitude Azimuth Distance (km) Brightness Sun altitude
Exits shadow 20:25:36 - 194° (SSW) 2,500 4.3 -13.0°
Reaches altitude 10° 20:26:51 10° 201° (SSW) 2,037 3.9 -13.2°
Maximum altitude 20:30:50 32° 264° (W) 1,112 3.2 -13.6°
Drops below altitude 10° 20:34:50 10° 328° (NNW) 2,047 5.7 -14.0°
Sets 20:37:16 0° 339° (NNW) 2,960 6.6 -14.2°
